De Queen, AR

2:16 AM CDT on October 15, 2019 (GMT -0500)
Helms Sevier County

Weather History for KDEQ - August, 2019

Change the Weather History Date:

Friday, August 23, 2019

  Actual Average Record
Temperature  
Mean Temperature 82 °F 81 °F  
Max Temperature 91 °F 94 °F 105 °F (2005)
Min Temperature 73 °F 68 °F 51 °F (1956)
Degree Days  
Heating Degree Days 0 0  
Month to date heating degree days 0 0  
Since 1 June heating degree days 0 0  
Since 1 July heating degree days 0 0  
Cooling Degree Days 18 16  
Month to date cooling degree days 450 381  
Year to date cooling degree days 1587 1473  
Since 1 June cooling degree days 1314 1256  
Growing Degree Days 32 (Base 50)    
Moisture  
Dew Point 74 °F    
Average Humidity 77    
Maximum Humidity 94    
Minimum Humidity 59    
Precipitation  
Precipitation 0.00 in 0.08 in 5.02 in (1937)
Month to date precipitation 0.35 1.59  
Year to date precipitation 37.43 31.01  
Snow  
Snow 0.00 in - - ()
Month to date snowfall 0.0  
Since 1 June snowfall 0.0  
Since 1 July snowfall 0.0  
Snow Depth 0.00 in    
Sea Level Pressure  
Sea Level Pressure 29.92 in    
Wind  
Wind Speed 5 mph ()    
Max Wind Speed 14 mph    
Max Gust Speed 19 mph    
Visibility 10.0 miles    
Events      
T = Trace of Precipitation, MM = Missing Value Source: Averaged Metar Reports

Daily Weather History Graph

Daily Weather History Graph

Search for Another Location

Airport or City:

Astronomy

Aug. 23, 2019 Rise Set
Actual Time 6:44 AM CDT 7:55 PM CDT
Civil Twilight 6:18 AM CDT 8:21 PM CDT
Nautical Twilight 5:47 AM CDT 8:52 PM CDT
Astronomical Twilight 5:15 AM CDT 9:24 PM CDT
Moon 12:05 AM CDT (8/23) 2:02 PM CDT (8/23)
Length of Visible Light 14h 02m
Length of Day
13h 10m
Waning Gibbous, 49% of the Moon is Illuminated
Aug 23
Waning Gibbous
Aug 30
New
Sep 5
First Quarter
Sep 13
Full
Sep 21
Last Quarter

Hourly Weather History & Observations

Time (CDT) Temp. Heat Index Dew Point Humidity Pressure Visibility Wind Dir Wind Speed Gust Speed Precip Events Conditions
12:53 AM 77.0 °F - 75.0 °F 94% 29.90 in 10.0 mi ENE 5.8 mph - N/A   Mostly Cloudy
1:53 AM 79.0 °F - 72.0 °F 79% 29.90 in 10.0 mi East 8.1 mph - N/A   Mostly Cloudy
2:53 AM 78.1 °F - 71.1 °F 79% 29.91 in 10.0 mi East 9.2 mph - N/A   Overcast
3:53 AM 75.9 °F - 70.0 °F 82% 29.90 in 10.0 mi East 6.9 mph - N/A   Partly Cloudy
4:53 AM 75.0 °F - 71.1 °F 87% 29.92 in 10.0 mi East 5.8 mph - N/A   Scattered Clouds
5:53 AM 73.9 °F - 71.1 °F 91% 29.92 in 10.0 mi East 5.8 mph - N/A   Clear
6:53 AM 73.0 °F - 71.1 °F 93% 29.95 in 10.0 mi ENE 5.8 mph - N/A   Clear
7:53 AM 75.0 °F - 72.0 °F 90% 29.96 in 10.0 mi ENE 3.5 mph - N/A   Clear
9:53 AM 81.0 °F 85.8 °F 73.0 °F 77% 29.96 in 10.0 mi Calm Calm - N/A   Mostly Cloudy
10:53 AM 84.9 °F 93.3 °F 75.0 °F 72% 29.96 in 10.0 mi Variable 3.5 mph - N/A   Partly Cloudy
11:24 AM 84.9 °F 94.1 °F 75.9 °F 74% 29.98 in 10.0 mi Calm Calm - N/A   Mostly Cloudy
11:53 AM 86.0 °F 95.1 °F 75.0 °F 70% 29.97 in 10.0 mi NNE 4.6 mph - N/A   Mostly Cloudy
12:53 PM 88.0 °F 97.5 °F 75.0 °F 65% 29.95 in 10.0 mi NNE 3.5 mph - N/A   Clear
1:53 PM 88.0 °F 98.5 °F 75.9 °F 67% 29.93 in 10.0 mi NE 4.6 mph - N/A   Mostly Cloudy
2:53 PM 91.0 °F 101.6 °F 75.0 °F 59% 29.89 in 10.0 mi ENE 5.8 mph - N/A   Clear
3:53 PM 89.1 °F 98.0 °F 73.9 °F 61% 29.86 in 10.0 mi ESE 9.2 mph - N/A   Partly Cloudy
4:53 PM 88.0 °F 96.5 °F 73.9 °F 63% 29.87 in 10.0 mi ENE 9.2 mph - N/A   Partly Cloudy
5:53 PM 89.1 °F 99.1 °F 75.0 °F 63% 29.87 in 10.0 mi East 5.8 mph - N/A   Scattered Clouds
6:53 PM 86.0 °F 96.0 °F 75.9 °F 72% 29.88 in 10.0 mi ESE 4.6 mph - N/A   Partly Cloudy
7:53 PM 82.9 °F 91.8 °F 77.0 °F 82% 29.87 in 10.0 mi ENE 4.6 mph - N/A   Scattered Clouds
8:53 PM 82.0 °F 88.6 °F 75.0 °F 79% 29.88 in 10.0 mi ENE 5.8 mph - N/A   Clear
9:53 PM 82.0 °F 88.6 °F 75.0 °F 79% 29.92 in 10.0 mi ESE 6.9 mph - N/A   Mostly Cloudy
10:53 PM 80.1 °F 84.5 °F 73.9 °F 81% 29.92 in 10.0 mi ESE 4.6 mph - N/A   Mostly Cloudy
11:53 PM 77.0 °F - 73.0 °F 88% 29.93 in 10.0 mi ENE 3.5 mph - N/A   Partly Cloudy